DateTimeUTC,F1_A11,F1_S11,BsB_S11,BsG_S11,BsR_S11,BbsB_S11,BbsG_S11,BbsR_S11,BaB_A11,BaG_A11,BaR_A11,Tu_S11,T_S11,Uu_S11,U_S11,P_S11,T1_A11
2021-06-16T08:00:00Z,00000200,20000000,,,,,,,0000.26,-000.38,0000.01,17.1,24.2,01.5,01.0,0669.4,30.9
2021-06-16T08:01:00Z,00000200,20000000,,,,,,,-000.38,-000.21,-000.25,17.1,24.2,01.5,01.0,0669.4,30.9
2021-06-16T08:02:00Z,00000200,20000000,,,,,,,0000.47,0000.09,-000.28,17.1,24.2,01.5,01.0,0669.4,30.9
2021-06-16T08:03:00Z,00000200,60000000,,,,,,,0000.24,0000.42,0000.60,17.1,24.2,01.5,01.0,0669.4,30.9
2021-06-16T08:04:00Z,00000200,41000000,0000.91,0000.69,0000.19,0000.76,0000.19,0000.12,-000.06,-000.09,0000.34,17.1,23.9,01.6,01.1,0670.3,30.9
2021-06-16T08:05:00Z,00000200,01000000,0001.22,0000.93,0000.18,0000.16,-000.10,0000.03,0000.51,0000.33,0000.07,17.1,23.9,01.6,01.1,0670.4,30.9
2021-06-16T08:06:00Z,00000200,01000000,0000.13,0000.42,0000.17,0000.31,0000.04,0000.11,0000.11,0000.15,0000.11,17.2,23.9,01.6,01.1,0670.4,30.9
2021-06-16T08:07:00Z,00000200,01000000,0001.04,0000.66,0000.63,0000.05,-000.09,0000.34,0000.35,0000.72,0000.33,17.2,23.9,01.6,01.1,0670.4,30.9
2021-06-16T08:08:00Z,00000200,01000000,0000.48,0000.45,0000.32,-000.17,-000.00,0000.19,0000.01,0000.00,0000.01,17.3,24.0,01.6,01.1,0670.7,30.9
2021-06-16T08:09:00Z,00000200,01000000,-000.08,0000.78,0000.67,0000.44,-000.15,0000.34,0000.72,0000.87,0000.44,17.4,24.0,01.6,01.1,0670.5,31.0
2021-06-16T08:10:00Z,00000200,01000000,0000.59,0000.55,0000.24,0000.12,-000.13,0000.35,0000.40,0000.01,0000.24,17.5,24.1,01.8,01.2,0670.4,31.0
2021-06-16T08:11:00Z,00000200,01000000,0000.64,0000.68,0000.33,0000.59,0000.06,0000.19,0000.21,-000.40,0000.10,17.6,24.1,01.7,01.2,0670.4,31.0
2021-06-16T08:12:00Z,00000200,01000000,0000.61,0000.57,0000.19,0000.25,-000.02,0000.18,0000.73,0001.51,0000.51,17.6,24.1,02.1,01.4,0670.5,31.0
2021-06-16T08:13:00Z,00000200,01000000,0000.50,0000.84,0000.10,-000.46,0000.06,0000.10,-000.42,-000.96,-000.26,17.6,24.1,01.9,01.3,0670.4,30.9
2021-06-16T08:14:00Z,00000200,01000000,0000.68,0000.67,0000.54,-000.01,0000.16,0000.14,0000.81,0001.07,0000.32,17.5,24.0,01.8,01.2,0670.4,30.9
2021-06-16T08:15:00Z,00000200,00000000,0000.42,0000.96,0000.55,0000.55,0000.24,0000.04,-000.15,-000.21,-000.05,17.5,24.0,01.9,01.3,0670.4,31.0
2021-06-16T08:16:00Z,00000200,00000000,0000.41,0000.62,0000.64,0000.43,0000.15,0000.33,0000.42,0000.34,0000.56,17.4,24.0,02.0,01.4,0670.4,30.9
2021-06-16T08:17:00Z,00000200,01000000,0000.89,0000.74,0000.20,-000.14,-000.00,0000.32,-000.23,-000.31,-000.52,17.4,24.0,01.9,01.2,0670.4,30.9
2021-06-16T08:18:00Z,00000200,01000000,0000.97,0000.74,0000.20,0000.22,-000.05,0000.31,0001.26,0000.85,0000.45,17.4,24.0,01.8,01.2,0670.4,30.9
2021-06-16T08:19:00Z,00000200,00000000,0001.22,0000.88,0000.36,0000.26,-000.19,0000.14,-000.14,0000.41,0000.40,17.3,23.9,02.2,01.5,0670.3,30.9
2021-06-16T08:20:00Z,00000200,01000000,0000.95,0000.59,0000.30,0000.32,-000.05,0000.40,-000.43,-000.76,-000.35,17.4,23.9,02.0,01.3,0670.3,30.9
2021-06-16T08:21:00Z,00000200,01000000,0000.82,0000.73,0000.38,-000.26,0000.09,0000.38,0000.39,0000.73,0000.47,17.4,24.0,01.7,01.1,0670.3,31.0
2021-06-16T08:22:00Z,00000200,01000000,0000.65,0000.60,0000.31,0000.20,-000.01,0000.34,0000.14,-000.17,0000.20,17.5,24.0,01.6,01.1,0670.4,31.0
2021-06-16T08:23:00Z,00000200,01000000,0001.04,0000.41,0000.22,0000.14,0000.18,-000.04,0001.82,0001.82,0001.10,17.6,24.1,01.7,01.2,0670.4,31.0
2021-06-16T08:24:00Z,00000200,01000000,0001.08,0000.65,0000.48,0000.18,-000.05,0000.18,-000.50,-000.03,-000.03,17.7,24.1,02.1,01.4,0670.4,31.0
2021-06-16T08:25:00Z,00000200,00000000,0000.88,0000.73,0000.37,0000.48,0000.03,0000.27,0000.28,0000.18,-000.13,17.8,24.2,02.0,01.4,0670.4,31.0
2021-06-16T08:26:00Z,00000200,00000000,0000.77,0000.64,0000.70,0000.26,0000.10,0000.08,0000.67,0000.49,0000.26,17.9,24.2,02.5,01.7,0670.4,31.0
2021-06-16T08:27:00Z,00000200,01000000,0000.09,0000.68,0000.72,0000.11,0000.13,0000.23,-001.04,-000.69,-000.43,18.0,24.3,02.1,01.4,0670.4,31.1
2021-06-16T08:28:00Z,00000200,01000000,0000.82,0000.39,0000.37,0000.44,0000.13,0000.48,-000.21,-000.49,0000.10,18.0,24.3,01.6,01.1,0670.4,31.1
2021-06-16T08:29:00Z,00000200,01000000,0000.55,0000.76,0000.31,0000.31,-000.01,0000.56,0000.08,0000.02,-000.36,18.0,24.3,01.5,01.1,0670.4,31.0
2021-06-16T08:30:00Z,00000200,01000000,0001.10,0000.40,0000.37,0000.25,-000.08,0000.41,0000.51,0000.14,0000.79,18.0,24.3,01.5,01.0,0670.4,31.0
2021-06-16T08:31:00Z,00000200,01000000,0001.34,0000.51,0000.33,0000.21,0000.25,0000.01,0000.52,0000.81,-000.07,17.9,24.2,01.5,01.0,0670.3,31.0
2021-06-16T08:32:00Z,00000200,01000000,0001.20,0000.47,0000.27,0000.68,0000.03,-000.05,0000.77,0000.39,0000.16,17.9,24.3,01.9,01.3,0670.4,31.0
2021-06-16T08:33:00Z,00000200,00000000,0000.50,0000.65,0000.59,0000.73,0000.02,0000.28,0000.05,0000.24,0000.58,17.8,24.2,02.0,01.3,0670.3,31.0
2021-06-16T08:34:00Z,00000200,00000000,0000.63,0000.75,0000.16,0000.38,0000.30,0000.51,0000.81,0000.42,0000.15,17.8,24.2,02.1,01.4,0670.3,31.0
2021-06-16T08:35:00Z,00000200,01000000,0001.20,0000.76,0000.58,0000.07,0000.11,0000.25,0000.53,0000.76,0000.29,17.8,24.2,02.1,01.4,0670.4,31.0
2021-06-16T08:36:00Z,00000200,00000000,0000.32,0000.65,0000.34,0000.15,0000.20,0000.23,0000.58,0000.34,0000.47,17.9,24.2,02.1,01.4,0670.4,31.0
2021-06-16T08:37:00Z,00000200,00000000,0001.12,0001.03,0000.41,-000.17,0000.05,0000.04,0000.10,0000.16,0000.11,17.9,24.3,02.3,01.6,0670.4,31.0
2021-06-16T08:38:00Z,00000200,00000000,0001.32,0000.68,0000.52,0000.27,0000.23,0000.30,0000.24,0000.49,0000.01,18.0,24.3,02.4,01.6,0670.4,31.0
2021-06-16T08:39:00Z,00000200,00000000,0000.49,0000.73,0000.39,0000.08,0000.14,0000.09,0000.27,0000.24,0000.12,18.0,24.3,02.5,01.7,0670.4,31.0
2021-06-16T08:40:00Z,00000200,00000000,0000.85,0000.74,0000.49,0000.12,0000.02,0000.09,-000.43,-000.85,-000.13,18.0,24.3,02.3,01.6,0670.4,31.0
2021-06-16T08:41:00Z,00000200,00000000,0000.86,0000.51,0000.58,0000.11,0000.11,0000.19,-000.63,-000.23,-000.46,17.9,24.3,02.0,01.4,0670.4,31.0
2021-06-16T08:42:00Z,00000200,01000000,0000.47,0000.53,0000.48,0000.42,0000.03,0000.10,0000.32,0000.43,-000.02,17.9,24.3,02.0,01.3,0670.4,31.0
2021-06-16T08:43:00Z,00000200,00000000,0000.64,0000.32,0000.44,0000.16,-000.04,-000.20,-000.35,-000.88,0000.07,17.9,24.3,01.8,01.2,0670.4,31.0
2021-06-16T08:44:00Z,00000200,01000000,0000.97,0000.55,0000.46,-000.36,0000.22,0000.29,0000.33,0000.75,0000.26,17.8,24.3,01.7,01.2,0670.4,31.0
2021-06-16T08:45:00Z,00000200,01000000,0000.45,0000.61,0000.49,-000.17,0000.17,0000.19,0000.38,-000.02,0000.11,17.8,24.2,01.8,01.2,0670.4,30.9
2021-06-16T08:46:00Z,00000200,01000000,0000.89,0000.66,0000.50,0000.19,0000.23,0000.34,-000.01,0000.20,0000.28,17.7,24.2,01.7,01.2,0670.3,30.9
2021-06-16T08:47:00Z,00000200,01000000,0000.61,0000.45,0000.30,0000.28,0000.16,0000.21,0000.05,-000.26,-000.42,17.7,24.2,01.7,01.1,0670.3,30.9
2021-06-16T08:48:00Z,00000200,01000000,0000.95,0000.32,0000.31,0000.83,0000.03,0000.19,0000.51,0000.74,0000.79,17.6,24.1,01.5,01.0,0670.4,30.9
2021-06-16T08:49:00Z,00000200,01000000,0001.22,0000.72,0000.64,0000.27,0000.31,-000.02,0000.39,0000.27,0000.20,17.6,24.1,01.7,01.1,0670.3,30.9
2021-06-16T08:50:00Z,00000200,01000000,0001.09,0000.69,0000.33,0000.06,0000.22,0000.15,-000.08,0000.00,0000.00,17.6,24.1,01.7,01.1,0670.3,30.9
2021-06-16T08:51:00Z,00000200,01000000,0000.27,0000.63,0000.13,0000.12,0000.14,-000.04,-000.05,-000.23,-000.08,17.6,24.1,01.5,01.0,0670.3,30.9
2021-06-16T08:52:00Z,00000200,01000000,0000.40,0000.69,0000.34,0000.22,0000.25,0000.20,0000.39,0000.71,0000.36,17.6,24.1,01.6,01.0,0670.3,30.9
2021-06-16T08:53:00Z,00000200,01000000,0000.77,0000.63,0000.22,0000.29,0000.04,0000.01,0000.24,0000.05,0000.04,17.6,24.1,01.5,01.0,0670.3,30.9
2021-06-16T08:54:00Z,00000200,01000000,0000.76,0000.70,0000.28,-000.21,0000.29,-000.17,0000.15,0000.30,0000.13,17.7,24.1,01.6,01.1,0670.3,30.9
2021-06-16T08:55:00Z,00000200,01000000,0000.48,0000.89,0000.27,0000.41,0000.15,0000.28,0000.48,0000.07,0000.27,17.6,24.1,01.6,01.1,0670.3,30.9
2021-06-16T08:56:00Z,00000200,01000000,0000.31,0000.67,0000.20,-000.17,0000.32,-000.02,0000.36,0000.57,0000.27,17.6,24.1,01.8,01.2,0670.3,30.9
2021-06-16T08:57:00Z,00000200,40000000,,,,,,,-000.17,-000.07,0000.16,17.7,24.2,01.5,01.0,0670.3,30.9
2021-06-16T08:58:00Z,00000200,60000000,,,,,,,0000.19,-000.11,-000.21,17.4,24.2,01.7,01.1,0669.3,30.9
2021-06-16T08:59:00Z,00000200,20000000,,,,,,,-000.18,-000.16,-000.14,17.4,24.3,01.7,01.1,0669.3,30.9
